Home   Weather   Perm   Past weeks
Flag for Russia

Past Weather in Perm, Russia — Yesterday and Last 2 Weeks

Now
36 °F

Overcast.


Feels Like: 29 °F
Forecast: 37 / 27 °F
Wind: 8 mph from West

Location: Perm'/Bolshoe Savino

Current Time: Mar 21, 2019 at 2:58:06 pm

Latest Report: Mar 21, 2019 at 2:00 pm


Visibility: N/A

Pressure: 30.01 "Hg

Humidity: 87%

Dew Point: 32 °F

Location of PermLocation

Past Weather in Perm — Graph

°F

Perm Temperature Yesterday

Maximum temperature yesterday: 43 °F (at 3:30 pm)
Minimum temperature yesterday: 23 °F (at 12:00 am)
Average temperature yesterday: 34 °F

High & Low Weather Summary for the Past Weeks

 TemperatureHumidityPressure
High48 °F (Mar 19, 2:00 pm)100% (Mar 11, 8:00 pm)30.36 "Hg (Mar 11, 8:00 pm)
Low7 °F (Mar 16, 6:30 am)23% (Mar 19, 5:30 pm)29.21 "Hg (Mar 6, 1:00 pm)
Average29 °F73%29.92 "Hg
* Reported Mar 6 1:00 pm — Mar 21 1:30 pm, Perm. Weather by CustomWeather, © 2019

Note: Actual official high and low records may vary slightly from our data, if they occured in-between our weather recording intervals... More about our weather records

Advertising

Perm Weather History for the Previous 24 Hours

Scroll right to see more
 ConditionsComfort  
Time TempWeatherWind HumidityBarometerVisibility
1:30 pm
Thu, Mar 21
36 °FLow clouds.8 mph87%30.01 "HgN/A
1:00 pm36 °FLow clouds.8 mph93%30.01 "HgN/A
12:30 pm36 °FLow clouds.10 mph93%30.01 "HgN/A
12:00 pm36 °FPartly sunny.10 mph93%30.01 "HgN/A
11:30 am34 °FPartly sunny.8 mph93%30.01 "HgN/A
11:00 am34 °FLight rain. Partly sunny.6 mph100%30.01 "HgN/A
10:30 am34 °FLight rain. Partly sunny.6 mph100%29.98 "HgN/A
10:00 am34 °FLight rain. Partly sunny.8 mph100%29.98 "HgN/A
9:30 am34 °FLight snow. Partly sunny.8 mph93%29.98 "HgN/A
9:00 am32 °FLight snow. Partly sunny.8 mph100%29.98 "HgN/A
8:30 am32 °FLight snow. Partly sunny.6 mph100%29.98 "Hg6 mi
8:00 am32 °FLight snow. Passing clouds.6 mph100%29.98 "Hg6 mi
7:30 am32 °FLight snow. Partly cloudy.3 mph100%29.98 "Hg2 mi
7:00 am32 °FLight snow. Partly cloudy.6 mph100%29.98 "Hg2 mi
6:30 am32 °FLight snow. Partly cloudy.6 mph100%29.98 "Hg1 mi
5:30 am32 °FSnow. Passing clouds.3 mph100%30.01 "Hg1 mi
5:00 am32 °FHeavy snow. Dense fog.1 mph100%30.01 "Hg1 mi
4:30 am34 °FSnow. Dense fog.1 mph93%30.01 "Hg1 mi
4:00 am34 °FSnow. Passing clouds.1 mph93%30.01 "Hg1 mi
3:30 am32 °FLight rain. Ice fog.3 mph100%30.04 "Hg1 mi
3:00 am32 °FLight rain. Ice fog.3 mph100%30.04 "Hg1 mi
2:30 am34 °FLight rain. Fog.3 mph93%30.04 "Hg2 mi
2:00 am32 °FLight rain. Ice fog.3 mph100%30.04 "Hg2 mi
1:30 am34 °FLight rain. Passing clouds.1 mph100%30.07 "Hg4 mi
1:00 am34 °FLight rain. Fog.3 mph93%30.07 "Hg3 mi
12:30 am34 °FLight rain. Passing clouds.6 mph93%30.07 "Hg6 mi
12:00 am36 °FLight rain. Overcast.6 mph93%30.07 "Hg6 mi
11:30 pm
Wed, Mar 20
36 °FLight rain. Overcast.8 mph87%30.07 "HgN/A
11:00 pm37 °FLight rain. Overcast.10 mph81%30.07 "HgN/A
10:30 pm37 °FLight rain. Overcast.8 mph75%30.07 "HgN/A
10:00 pm37 °FLight rain. Overcast.6 mph81%30.09 "HgN/A
9:30 pm36 °FOvercast.6 mph87%30.09 "HgN/A
9:00 pm37 °FLight rain. Overcast.8 mph75%30.09 "HgN/A
8:30 pm39 °FOvercast.8 mph75%30.09 "HgN/A
8:00 pm39 °FPartly sunny.8 mph75%30.09 "HgN/A
7:30 pm39 °FLight rain. Partly sunny.10 mph75%30.09 "HgN/A
7:00 pm39 °FPartly sunny.6 mph70%30.09 "HgN/A
6:30 pm41 °FPartly sunny.8 mph66%30.09 "HgN/A
6:00 pm41 °FScattered clouds.8 mph66%30.09 "HgN/A
5:30 pm41 °FScattered clouds.8 mph66%30.09 "HgN/A
5:00 pm41 °FPassing clouds.8 mph66%30.09 "HgN/A
4:30 pm39 °FSunny.6 mph70%30.09 "Hg10 mi
4:00 pm41 °FSunny.8 mph66%30.09 "Hg10 mi
3:30 pm43 °FPassing clouds.6 mph61%30.09 "HgN/A
3:00 pm41 °FPassing clouds.6 mph66%30.12 "HgN/A
2:30 pm41 °FPassing clouds.8 mph66%30.12 "HgN/A
2:00 pm41 °FSunny.6 mph66%30.12 "Hg10 mi
Weather by CustomWeather, © 2019

See weather overview